User: anonymous
Location: San Francisco
(37.7750°N, 122.4180°W)
Time: 01:44:18
(UTC-07:00)
Language:

GP-B - Orbit

View from above orbital plane
View from above orbital plane
View from above satellite
View from above satellite

Ground track
Ground track

The orbit data is extracted from the following two-line orbital elements,

1 28230U 04014A   14293.13267025  .00001146  00000-0  15796-3 0  1950
2 28230 089.8805 138.2754 0002943 089.7643 270.3916 14.77680094565640
Epoch (UTC): 20 October 2014 03:11:02
Eccentricity: 0.0002943
inclination: 89.8805°
perigee height: 634 km
apogee height: 639 km
right ascension of ascending node: 138.2754°
argument of perigee: 89.7643°
revolutions per day: 14.77680094
mean anomaly at epoch: 270.3916°
orbit number at epoch: 56564

The dashed part of the orbit path shows where the satellite is in the earth's shadow,  

DLR